| time (UTC) | temp F | wind direction | speed MPH | gust MPH | rain 1hr in | rain 24hr in | rain mn in | humidity % | barometer mb |
| 20260506083838 | 53 | 23 | 2.0 | 4.0 | 0.00 | 0.00 | 0.00 | 59 | 1016.6 |
| 20260506082838 | 52 | 19 | 2.0 | 4.0 | 0.00 | 0.00 | 0.00 | 62 | 1016.6 |
| 20260506081818 | 52 | 322 | 1.0 | 3.0 | 0.00 | 0.00 | 0.00 | 66 | 1016.6 |
| 20260506080818 | 52 | 336 | 2.0 | 5.0 | 0.00 | 0.00 | 0.00 | 68 | 1016.7 |
| 20260506072818 | 50 | 327 | 2.0 | 6.0 | 0.00 | 0.00 | 0.00 | 75 | 1016.6 |
| 20260506071817 | 50 | 330 | 2.0 | 5.0 | 0.00 | 0.00 | 0.00 | 76 | 1016.5 |
| 20260506070817 | 50 | 338 | 3.0 | 7.0 | 0.00 | 0.00 | 0.00 | 76 | 1016.5 |
| 20260506061817 | 48 | 327 | 2.0 | 6.0 | 0.00 | 0.00 | 0.00 | 78 | 1016.5 |
| 20260506060817 | 48 | 327 | 3.0 | 6.0 | 0.00 | 0.00 | 0.00 | 78 | 1016.4 |
| 20260506050817 | 48 | 344 | 1.0 | 4.0 | 0.00 | 0.00 | 0.00 | 75 | 1016.4 |
| 20260506044817 | 48 | 322 | 2.0 | 6.0 | 0.00 | 0.00 | 0.00 | 76 | 1016.5 |
| 20260506043817 | 48 | 317 | 3.0 | 6.0 | 0.00 | 0.00 | 0.00 | 74 | 1016.6 |
| 20260506042857 | 48 | 1 | 1.0 | 4.0 | 0.00 | 0.00 | 0.00 | 73 | 1016.6 |
| 20260506041836 | 48 | 360 | 2.0 | 7.0 | 0.00 | 0.00 | 0.00 | 73 | 1016.6 |
| 20260506040817 | 48 | 318 | 3.0 | 9.0 | 0.00 | 0.00 | 0.00 | 73 | 1016.5 |
| 20260506035809 | 48 | 328 | 2.0 | 5.0 | 0.00 | 0.00 | 0.00 | 71 | 1016.6 |
| 20260506034849 | 48 | 331 | 2.0 | 7.0 | 0.00 | 0.00 | 0.00 | 72 | 1016.7 |
| 20260506033809 | 48 | 313 | 2.0 | 5.0 | 0.00 | 0.00 | 0.00 | 73 | 1016.7 |
| 20260506032809 | 48 | 305 | 1.0 | 4.0 | 0.00 | 0.00 | 0.00 | 70 | 1016.8 |
| 20260506031809 | 49 | 328 | 1.0 | 3.0 | 0.00 | 0.00 | 0.00 | 70 | 1016.8 |
| 20260506030829 | 49 | 337 | 3.0 | 7.0 | 0.00 | 0.00 | 0.00 | 69 | 1016.9 |
| 20260506025808 | 49 | 322 | 4.0 | 10.0 | 0.00 | 0.00 | 0.00 | 69 | 1016.9 |
| 20260506024808 | 49 | 323 | 4.0 | 9.0 | 0.00 | 0.00 | 0.00 | 70 | 1016.9 |
| 20260506023809 | 48 | 317 | 3.0 | 6.0 | 0.00 | 0.00 | 0.00 | 72 | 1017.0 |
| 20260506022833 | 48 | 318 | 3.0 | 6.0 | 0.00 | 0.00 | 0.00 | 72 | 1017.0 |
| 20260506021809 | 49 | 319 | 3.0 | 7.0 | 0.00 | 0.00 | 0.00 | 70 | 1017.1 |
| 20260506020808 | 49 | 320 | 3.0 | 7.0 | 0.00 | 0.00 | 0.00 | 70 | 1017.1 |
| 20260506015808 | 49 | 320 | 4.0 | 9.0 | 0.00 | 0.00 | 0.00 | 71 | 1017.1 |
| 20260506014813 | 49 | 327 | 3.0 | 7.0 | 0.00 | 0.00 | 0.00 | 71 | 1017.1 |
| 20260506013808 | 49 | 325 | 3.0 | 7.0 | 0.00 | 0.00 | 0.00 | 70 | 1017.2 |
| 20260506012809 | 49 | 316 | 3.0 | 7.0 | 0.00 | 0.00 | 0.00 | 70 | 1017.3 |
| 20260506011828 | 49 | 324 | 3.0 | 9.0 | 0.00 | 0.00 | 0.00 | 69 | 1017.3 |
| 20260506010808 | 49 | 319 | 3.0 | 8.0 | 0.00 | 0.00 | 0.00 | 67 | 1017.4 |
| 20260506005808 | 50 | 325 | 4.0 | 8.0 | 0.00 | 0.00 | 0.00 | 65 | 1017.5 |
| 20260506004808 | 50 | 320 | 3.0 | 6.0 | 0.00 | 0.00 | 0.00 | 64 | 1017.5 |
| 20260506003809 | 50 | 324 | 2.0 | 6.0 | 0.00 | 0.00 | 0.00 | 64 | 1017.6 |
| 20260506002808 | 50 | 332 | 3.0 | 7.0 | 0.00 | 0.00 | 0.00 | 64 | 1017.5 |
| 20260506001828 | 50 | 320 | 3.0 | 6.0 | 0.00 | 0.00 | 0.00 | 64 | 1017.6 |
| 20260506000808 | 50 | 358 | 1.0 | 3.0 | 0.00 | 0.00 | 0.00 | 63 | 1017.6 |
| 20260505235808 | 50 | 317 | 2.0 | 4.0 | 0.00 | 0.00 | 0.00 | 63 | 1017.7 |
| 20260505234808 | 50 | 316 | 3.0 | 8.0 | 0.00 | 0.00 | 0.00 | 62 | 1017.8 |
| 20260505233808 | 50 | 318 | 3.0 | 8.0 | 0.00 | 0.00 | 0.00 | 61 | 1017.8 |
| 20260505232828 | 50 | 314 | 3.0 | 6.0 | 0.00 | 0.00 | 0.00 | 62 | 1017.9 |
| 20260505231808 | 50 | 318 | 3.0 | 6.0 | 0.00 | 0.00 | 0.00 | 62 | 1017.9 |
| 20260505230808 | 51 | 328 | 1.0 | 3.0 | 0.00 | 0.00 | 0.00 | 61 | 1017.9 |
| 20260505225827 | 51 | 314 | 2.0 | 4.0 | 0.00 | 0.00 | 0.00 | 59 | 1018.0 |
| 20260505224808 | 51 | 334 | 3.0 | 7.0 | 0.00 | 0.00 | 0.00 | 59 | 1018.1 |
| 20260505223808 | 51 | 327 | 4.0 | 9.0 | 0.00 | 0.00 | 0.00 | 59 | 1018.1 |
| 20260505222808 | 51 | 320 | 4.0 | 9.0 | 0.00 | 0.00 | 0.00 | 59 | 1018.2 |
| 20260505221808 | 51 | 326 | 4.0 | 11.0 | 0.00 | 0.00 | 0.00 | 58 | 1018.1 |
| 20260505220807 | 51 | 312 | 4.0 | 10.0 | 0.00 | 0.00 | 0.00 | 59 | 1018.2 |
| 20260505215808 | 52 | 313 | 4.0 | 9.0 | 0.00 | 0.00 | 0.00 | 57 | 1018.3 |
| 20260505214807 | 52 | 310 | 4.0 | 7.0 | 0.00 | 0.00 | 0.00 | 56 | 1018.3 |
| 20260505213807 | 52 | 330 | 3.0 | 8.0 | 0.00 | 0.00 | 0.00 | 57 | 1018.3 |
| 20260505212827 | 52 | 347 | 3.0 | 8.0 | 0.00 | 0.00 | 0.00 | 58 | 1018.3 |
| 20260505211807 | 52 | 340 | 3.0 | 8.0 | 0.00 | 0.00 | 0.00 | 56 | 1018.4 |
| 20260505210807 | 52 | 301 | 2.0 | 3.0 | 0.00 | 0.00 | 0.00 | 57 | 1018.3 |
| 20260505205827 | 52 | 300 | 3.0 | 4.0 | 0.00 | 0.00 | 0.00 | 56 | 1018.4 |
| 20260505204807 | 52 | 272 | 1.0 | 4.0 | 0.00 | 0.00 | 0.00 | 57 | 1018.3 |
| 20260505203827 | 52 | 1 | 2.0 | 4.0 | 0.00 | 0.00 | 0.00 | 58 | 1018.2 |
| 20260505202807 | 53 | 349 | 3.0 | 10.0 | 0.00 | 0.00 | 0.00 | 57 | 1018.2 |
| 20260505201807 | 53 | 1 | 3.0 | 6.0 | 0.00 | 0.00 | 0.00 | 56 | 1018.2 |
| 20260505200807 | 53 | 352 | 4.0 | 12.0 | 0.00 | 0.00 | 0.00 | 54 | 1018.1 |
| 20260505195807 | 53 | 359 | 5.0 | 12.0 | 0.00 | 0.00 | 0.00 | 55 | 1018.1 |
| 20260505194807 | 54 | 359 | 6.0 | 14.0 | 0.00 | 0.00 | 0.00 | 54 | 1018.1 |
| 20260505193807 | 54 | 356 | 5.0 | 13.0 | 0.00 | 0.00 | 0.00 | 53 | 1018.1 |
| 20260505192807 | 54 | 358 | 6.0 | 12.0 | 0.00 | 0.00 | 0.00 | 54 | 1018.0 |
| 20260505191807 | 54 | 358 | 3.0 | 6.0 | 0.00 | 0.00 | 0.00 | 55 | 1018.0 |
| 20260505190807 | 54 | 349 | 2.0 | 5.0 | 0.00 | 0.00 | 0.00 | 55 | 1018.0 |
| 20260505185807 | 54 | 349 | 3.0 | 7.0 | 0.00 | 0.00 | 0.00 | 54 | 1018.0 |
| 20260505184827 | 54 | 350 | 2.0 | 6.0 | 0.00 | 0.00 | 0.00 | 54 | 1018.0 |
| 20260505183806 | 54 | 355 | 3.0 | 6.0 | 0.00 | 0.00 | 0.00 | 53 | 1017.9 |
| 20260505182817 | 54 | 19 | 4.0 | 6.0 | 0.00 | 0.00 | 0.00 | 53 | 1017.9 |
| 20260505181806 | 55 | 25 | 6.0 | 8.0 | 0.00 | 0.00 | 0.00 | 54 | 1017.9 |
| 20260505180806 | 55 | 306 | 3.0 | 7.0 | 0.00 | 0.00 | 0.00 | 58 | 1018.0 |
| 20260505175826 | 55 | 306 | 3.0 | 7.0 | 0.00 | 0.00 | 0.00 | 58 | 1017.9 |
| 20260505174806 | 55 | 294 | 5.0 | 8.0 | 0.00 | 0.00 | 0.00 | 57 | 1018.0 |
| 20260505173806 | 55 | 286 | 4.0 | 8.0 | 0.00 | 0.00 | 0.00 | 57 | 1018.0 |
| 20260505172826 | 55 | 293 | 5.0 | 11.0 | 0.00 | 0.00 | 0.00 | 57 | 1018.0 |
| 20260505171826 | 55 | 292 | 4.0 | 9.0 | 0.00 | 0.00 | 0.00 | 57 | 1018.1 |
| 20260505170806 | 55 | 297 | 5.0 | 10.0 | 0.00 | 0.00 | 0.00 | 55 | 1018.2 |
| 20260505165806 | 55 | 302 | 7.0 | 12.0 | 0.00 | 0.00 | 0.00 | 55 | 1018.1 |
| 20260505164806 | 55 | 291 | 7.0 | 13.0 | 0.00 | 0.00 | 0.00 | 54 | 1018.3 |
| 20260505163826 | 56 | 291 | 4.0 | 12.0 | 0.00 | 0.00 | 0.00 | 54 | 1018.3 |
| 20260505162806 | 55 | 293 | 4.0 | 10.0 | 0.00 | 0.00 | 0.00 | 54 | 1018.3 |
| 20260505161806 | 55 | 274 | 9.0 | 14.0 | 0.00 | 0.00 | 0.00 | 54 | 1018.2 |
| 20260505160806 | 55 | 289 | 7.0 | 14.0 | 0.00 | 0.00 | 0.00 | 53 | 1018.3 |
| 20260505152806 | 55 | 308 | 6.0 | 11.0 | 0.00 | 0.00 | 0.00 | 51 | 1018.4 |
| 20260505151806 | 55 | 307 | 6.0 | 11.0 | 0.00 | 0.00 | 0.00 | 51 | 1018.4 |
| 20260505150806 | 55 | 306 | 6.0 | 10.0 | 0.00 | 0.00 | 0.00 | 50 | 1018.5 |
| 20260505124809 | 55 | 316 | 5.0 | 13.0 | 0.00 | 0.00 | 0.00 | 54 | 1018.9 |
| 20260505123829 | 54 | 309 | 8.0 | 16.0 | 0.00 | 0.00 | 0.00 | 56 | 1019.0 |
| 20260505122809 | 55 | 320 | 8.0 | 18.0 | 0.00 | 0.00 | 0.00 | 52 | 1019.1 |
| 20260505121809 | 56 | 354 | 5.0 | 13.0 | 0.00 | 0.00 | 0.00 | 41 | 1019.0 |
| 20260505120809 | 56 | 328 | 3.0 | 9.0 | 0.00 | 0.00 | 0.00 | 45 | 1019.0 |
| 20260505115809 | 56 | 309 | 3.0 | 7.0 | 0.00 | 0.00 | 0.00 | 48 | 1019.1 |
| 20260505114809 | 56 | 332 | 3.0 | 8.0 | 0.00 | 0.00 | 0.00 | 47 | 1019.1 |
| 20260505113949 | 55 | 333 | 3.0 | 6.0 | 0.00 | 0.00 | 0.00 | 50 | 1019.2 |
| 20260505112809 | 55 | 359 | 5.0 | 10.0 | 0.00 | 0.00 | 0.00 | 50 | 1019.2 |
| 20260505111809 | 55 | 360 | 5.0 | 11.0 | 0.00 | 0.00 | 0.00 | 50 | 1019.2 |
| 20260505110829 | 54 | 342 | 4.0 | 10.0 | 0.00 | 0.00 | 0.00 | 54 | 1019.3 |